Notices

What's New in latest Release from April 7th, 2021:

- Updated Glossary, including Speed of Maximum Gust, and Total Hourly Precipitation

- Updated national and regional climate services offices contacts and prices information

- Addition of station inventory lists for 1981-2010, 1971-2000, and 1961-1990 Normals.

If you haven't already, please take our survey and provide feedback about our website: https://eccc.sondage-survey.ca/f/LanguageSelection.aspx?s=442ca660-fcf1-47c0-95a9-59707d6fd709

Hourly Data Report for April 23, 2020

MIRAMICHI RCS
NEW BRUNSWICK
Current Station Operator: ECCC - MSC

47°00'34.000" N
65°27'54.000" W
33.00 m
8100989
71744
ACQ

Download Data

Hourly Data (April 2020)
Hourly Data Report for April 23, 2020
TIME
LST
Temp Definition
°C
Dew Point Definition
°C
Rel Hum Definition
%
Precip. Amount Definition
mm

Wind Dir Definition
10's deg

Wind Spd Definition
km/h
Visibility Definition
km
Stn Press Definition
kPa
Hmdx Definition


Wind Chill Definition


Weather Definition


00:00 -3.2 -9.7 60 LegendMM 25 25   99.50   -10 LegendNANA
01:00 -3.5 -9.6 62 LegendMM 25 16   99.53   -9 LegendNANA
02:00 -3.6 -9.7 62 LegendMM 25 22   99.52   -10 LegendNANA
03:00 -3.8 -10.0 62 LegendMM 25 19   99.55   -10 LegendNANA
04:00 -4.2 -9.4 67 LegendMM 23 21   99.59   -11 LegendNANA
05:00 -3.8 -11.9 54 LegendMM 26 31   99.64   -12 LegendNANA
06:00 -4.2 -12.3 53 LegendMM 27 26   99.71   -11 LegendNANA
07:00 -4.1 -12.5 52 LegendMM 26 31   99.76   -12 LegendNANA
08:00 -3.5 -12.5 50 LegendMM 27 27   99.79   -11 LegendNANA
09:00 -3.0 -12.2 49 LegendMM 27 29   99.80   -10 LegendNANA
10:00 -2.1 -11.1 50 LegendMM 25 30   99.79   -9 LegendNANA
11:00 -1.3 -11.3 47 LegendMM 26 29   99.80   -8 LegendNANA
12:00 -0.4 -10.3 47 LegendMM 26 26   99.84   -7 LegendNANA
13:00 0.9 -9.6 46 LegendMM 24 36   99.82     LegendNANA
14:00 1.7 -9.7 43 LegendMM 25 39   99.87     LegendNANA
15:00 2.7 -9.4 40 LegendMM 25 35   99.92     LegendNANA
16:00 3.4 -9.2 39 LegendMM 25 29   99.98     LegendNANA
17:00 4.1 -8.9 38 LegendMM 27 25   100.05     LegendNANA
18:00 4.0 -8.8 39 LegendMM 28 27   100.10     LegendNANA
19:00 3.5 -8.4 41 LegendMM 27 26   100.18     LegendNANA
20:00 2.7 -8.1 45 LegendMM 27 19   100.25     LegendNANA
21:00 2.1 -7.6 49 LegendMM 25 15   100.33     LegendNANA
22:00 1.0 -6.8 56 LegendMM 23 13   100.40     LegendNANA
23:00 0.4 -7.1 57 LegendMM 23 16   100.45     LegendNANA

Notes on Data Quality.

Legend

  • E = Estimated
  • M = Missing
  • NA = Not Available*
  • [empty] = Indicates an unobserved value
Date modified: